When you browse on this site, cookies collect data to enhance your experience and personalize the content and advertising you see.
Visit our Privacy Policy to learn more. By continuing to use the site, you agree to this use of cookies and data.
  • In Austria
  • List of Countries
  • For 7 days
  • Water Temperature
  • Weather Map
  • News
  • Weather Widgets
  • user-avatar
    Login

    Hourly Weather Sterling Heights

    Today, 18 January, Saturday

    Time Temperature Precipitation Wind Pressure Humidity
    00:00 -8°C° 0.5 mm 6 mps 754 mmHg 92%
    01:00 -6°C° 1.5 mm 6 mps 753 mmHg 93%
    02:00 -6°C° 1.5 mm 6 mps 752 mmHg 94%
    03:00 -7°C° 1.5 mm 7 mps 750 mmHg 95%
    04:00 -6°C° 1.6 mm 6 mps 749 mmHg 96%
    05:00 -5°C° 1.6 mm 6 mps 747 mmHg 96%
    06:00 -5°C° 1.6 mm 6 mps 746 mmHg 97%
    07:00 -4°C° 1.9 mm 6 mps 744 mmHg 97%
    08:00 -4°C° 1.9 mm 7 mps 743 mmHg 97%
    09:00 -3°C° 1.9 mm 7 mps 741 mmHg 97%
    10:00 -3°C° 1.1 mm 7 mps 739 mmHg 98%
    11:00 -2°C° 1.1 mm 7 mps 737 mmHg 98%
    12:00 -2°C° 1.1 mm 7 mps 735 mmHg 99%
    13:00 -1°C° 1.1 mm 7 mps 733 mmHg 99%
    14:00 -1°C° 1.1 mm 7 mps 732 mmHg 99%
    15:00 0°C° 1.1 mm 7 mps 730 mmHg 99%
    16:00 0°C° 0.2 mm 8 mps 731 mmHg 99%
    17:00 0°C° 0.2 mm 8 mps 731 mmHg 99%
    18:00 -1°C° 0.2 mm 9 mps 732 mmHg 98%
    19:00 -3°C° 0 mm 9 mps 733 mmHg 94%
    20:00 -4°C° 0 mm 9 mps 733 mmHg 90%
    21:00 -4°C° 0 mm 9 mps 734 mmHg 85%
    22:00 -6°C° 0 mm 9 mps 735 mmHg 85%
    23:00 -9°C° 0 mm 9 mps 735 mmHg 84%

    Tomorrow, 19 January, Sunday

    Time Temperature Precipitation Wind Pressure Humidity
    00:00 -10°C° 0 mm 9 mps 736 mmHg 84%
    01:00 -11°C° 0 mm 9 mps 737 mmHg 85%
    02:00 -11°C° 0 mm 9 mps 737 mmHg 85%
    03:00 -11°C° 0 mm 9 mps 738 mmHg 86%
    04:00 -12°C° 0 mm 9 mps 739 mmHg 86%
    05:00 -12°C° 0 mm 8 mps 740 mmHg 85%
    06:00 -12°C° 0 mm 8 mps 740 mmHg 85%
    07:00 -12°C° 0 mm 8 mps 741 mmHg 85%
    08:00 -12°C° 0 mm 8 mps 742 mmHg 85%
    09:00 -12°C° 0 mm 7 mps 742 mmHg 85%
    10:00 -12°C° 0 mm 7 mps 743 mmHg 85%
    11:00 -11°C° 0 mm 7 mps 743 mmHg 85%
    12:00 -9°C° 0 mm 7 mps 744 mmHg 85%
    13:00 -9°C° 0 mm 6 mps 744 mmHg 85%
    14:00 -9°C° 0 mm 6 mps 744 mmHg 85%
    15:00 -9°C° 0 mm 6 mps 744 mmHg 84%
    16:00 -9°C° 0.1 mm 6 mps 745 mmHg 86%
    17:00 -8°C° 0.1 mm 5 mps 745 mmHg 88%
    18:00 -8°C° 0.1 mm 5 mps 746 mmHg 89%
    19:00 -10°C° 0.1 mm 5 mps 746 mmHg 89%
    20:00 -9°C° 0.1 mm 4 mps 747 mmHg 89%
    21:00 -8°C° 0.1 mm 3 mps 747 mmHg 89%
    22:00 -10°C° 0 mm 4 mps 747 mmHg 89%
    23:00 -10°C° 0 mm 4 mps 748 mmHg 89%

    Day after tomorrow, 20 January, Monday

    Time Temperature Precipitation Wind Pressure Humidity
    00:00 -10°C° 0 mm 4 mps 748 mmHg 90%
    01:00 -11°C° 0 mm 4 mps 748 mmHg 90%
    02:00 -11°C° 0 mm 4 mps 749 mmHg 90%
    03:00 -11°C° 0 mm 4 mps 749 mmHg 91%
    04:00 -12°C° 0 mm 4 mps 749 mmHg 90%
    05:00 -12°C° 0 mm 4 mps 750 mmHg 90%
    06:00 -12°C° 0 mm 4 mps 751 mmHg 89%
    07:00 -12°C° 0 mm 3 mps 751 mmHg 87%
    08:00 -12°C° 0 mm 3 mps 751 mmHg 85%
    09:00 -10°C° 0 mm 3 mps 752 mmHg 83%
    10:00 -9°C° 0 mm 3 mps 752 mmHg 81%
    11:00 -9°C° 0 mm 3 mps 752 mmHg 79%
    12:00 -8°C° 0 mm 3 mps 752 mmHg 77%
    13:00 -7°C° 0 mm 3 mps 752 mmHg 79%
    14:00 -7°C° 0 mm 3 mps 752 mmHg 80%
    15:00 -7°C° 0 mm 3 mps 752 mmHg 82%
    16:00 -8°C° 0 mm 4 mps 752 mmHg 85%
    17:00 -8°C° 0 mm 4 mps 752 mmHg 87%
    18:00 -8°C° 0 mm 4 mps 752 mmHg 90%
    19:00 -9°C° 0 mm 4 mps 752 mmHg 89%
    20:00 -10°C° 0 mm 5 mps 752 mmHg 87%
    21:00 -10°C° 0 mm 5 mps 752 mmHg 86%
    22:00 -11°C° 0 mm 5 mps 752 mmHg 86%
    23:00 -10°C° 0 mm 4 mps 752 mmHg 86%

    21 January, Tuesday

    Time Temperature Precipitation Wind Pressure Humidity
    00:00 -11°C° 0 mm 4 mps 752 mmHg 86%
    01:00 -11°C° 0 mm 4 mps 753 mmHg 87%
    02:00 -11°C° 0 mm 4 mps 753 mmHg 88%
    03:00 -12°C° 0 mm 4 mps 753 mmHg 89%
    04:00 -12°C° 0 mm 4 mps 753 mmHg 89%
    05:00 -12°C° 0 mm 4 mps 753 mmHg 90%
    06:00 -12°C° 0 mm 3 mps 754 mmHg 90%
    07:00 -12°C° 0 mm 3 mps 754 mmHg 90%
    08:00 -10°C° 0 mm 3 mps 754 mmHg 89%
    09:00 -10°C° 0 mm 3 mps 755 mmHg 89%
    10:00 -9°C° 0 mm 3 mps 755 mmHg 87%
    11:00 -8°C° 0 mm 3 mps 754 mmHg 85%
    12:00 -7°C° 0 mm 3 mps 754 mmHg 83%
    13:00 -6°C° 0 mm 3 mps 754 mmHg 83%
    14:00 -6°C° 0 mm 3 mps 754 mmHg 84%
    15:00 -6°C° 0 mm 3 mps 754 mmHg 84%
    16:00 -7°C° 0 mm 3 mps 754 mmHg 85%
    17:00 -7°C° 0 mm 3 mps 754 mmHg 87%
    18:00 -7°C° 0 mm 3 mps 754 mmHg 88%
    19:00 -8°C° 0 mm 3 mps 754 mmHg 89%
    20:00 -8°C° 0 mm 3 mps 754 mmHg 89%
    21:00 -8°C° 0 mm 3 mps 754 mmHg 90%
    22:00 -8°C° 0 mm 3 mps 754 mmHg 90%
    23:00 -9°C° 0 mm 3 mps 754 mmHg 90%

    22 January, Wednesday

    Time Temperature Precipitation Wind Pressure Humidity
    00:00 -9°C° 0 mm 3 mps 753 mmHg 89%
    01:00 -10°C° 0 mm 3 mps 753 mmHg 89%
    02:00 -10°C° 0 mm 3 mps 753 mmHg 88%
    03:00 -11°C° 0 mm 4 mps 753 mmHg 87%
    04:00 -11°C° 0 mm 4 mps 753 mmHg 84%
    05:00 -11°C° 0 mm 4 mps 753 mmHg 82%
    06:00 -12°C° 0 mm 4 mps 753 mmHg 79%
    07:00 -11°C° 0 mm 4 mps 753 mmHg 79%
    08:00 -10°C° 0 mm 4 mps 753 mmHg 78%
    09:00 -10°C° 0 mm 4 mps 753 mmHg 77%
    10:00 -9°C° 0 mm 4 mps 753 mmHg 78%
    11:00 -8°C° 0 mm 5 mps 753 mmHg 79%
    12:00 -6°C° 0 mm 5 mps 752 mmHg 80%
    13:00 -6°C° 0 mm 5 mps 752 mmHg 81%
    14:00 -5°C° 0 mm 4 mps 752 mmHg 81%
    15:00 -4°C° 0 mm 4 mps 752 mmHg 82%
    16:00 -5°C° 0 mm 4 mps 752 mmHg 83%
    17:00 -5°C° 0 mm 4 mps 752 mmHg 85%
    18:00 -6°C° 0 mm 3 mps 752 mmHg 87%
    19:00 -6°C° 0 mm 3 mps 752 mmHg 86%
    20:00 -6°C° 0 mm 3 mps 752 mmHg 86%
    21:00 -6°C° 0 mm 3 mps 752 mmHg 86%
    22:00 -6°C° 0 mm 3 mps 752 mmHg 85%
    23:00 -6°C° 0 mm 3 mps 752 mmHg 85%

    23 January, Thursday

    Time Temperature Precipitation Wind Pressure Humidity
    00:00 -6°C° 0 mm 3 mps 752 mmHg 84%
    01:00 -6°C° 0 mm 3 mps 752 mmHg 85%
    02:00 -6°C° 0 mm 3 mps 752 mmHg 85%
    03:00 -6°C° 0 mm 3 mps 752 mmHg 85%
    04:00 -6°C° 0 mm 3 mps 752 mmHg 85%
    05:00 -6°C° 0 mm 3 mps 752 mmHg 86%
    06:00 -6°C° 0 mm 3 mps 752 mmHg 86%
    07:00 -5°C° 0 mm 3 mps 752 mmHg 84%
    08:00 -4°C° 0 mm 3 mps 753 mmHg 83%
    09:00 -2°C° 0 mm 3 mps 753 mmHg 81%
    10:00 -1°C° 0 mm 3 mps 753 mmHg 82%
    11:00 -1°C° 0 mm 3 mps 752 mmHg 83%
    12:00 -1°C° 0 mm 4 mps 752 mmHg 83%
    13:00 0°C° 0 mm 3 mps 752 mmHg 83%
    14:00 0°C° 0 mm 3 mps 752 mmHg 84%
    15:00 0°C° 0 mm 3 mps 751 mmHg 84%
    16:00 0°C° 0 mm 3 mps 751 mmHg 84%
    17:00 -1°C° 0 mm 3 mps 751 mmHg 84%
    18:00 -1°C° 0 mm 3 mps 751 mmHg 85%
    19:00 -1°C° 0 mm 3 mps 751 mmHg 84%
    20:00 -1°C° 0 mm 3 mps 751 mmHg 84%
    21:00 -1°C° 0 mm 3 mps 751 mmHg 84%
    22:00 -2°C° 0 mm 3 mps 751 mmHg 84%
    23:00 -2°C° 0 mm 3 mps 751 mmHg 84%
    Show more